STARLINK-5672 (55468 NORAD) Tracking and Keplerian Element Data

This shows tracking and keplerian element data for the satellite.

Feedback or suggestion? Click here.




ElementValue
Catalog55468
NameSTARLINK-5672
Epoch Orbit831
Epoch Day85.25001157
Epoch Year2023
RAAN76.7272
Inclination43.0013
Eccentricity0.000157
Argument of Perigee276.3294
Mean Anonmoly148.8168
Mean Motion15.48987937
Decay Rate-0.00122093
L11 55468U 23015V 23085.25001157 -.00122093 00000+0 -22303-2 0 9998
L22 55468 43.0013 76.7272 0001570 276.3294 148.8168 15.48987937 8317



Live tracking and technical data element details for STARLINK-5672 (NORAD 55468). STARLINK-5672 can be tracked NOW for your location showing map with azimuth and elevation plus other details from your city location.







IsCatalogInMostPopularTable: catalog: 55468, numindb: -1

Insert: records affected: 1


GetName: 55468 STARLINK-5672

Hit Count: inserted at: Tue, 28 Mar 2023 01:38:46 GMT